Location: Gairloch Mountain Observatory
(46.1383°N, 60.9640°W)
Time: 10:12:20
(UTC-03:00)

Daily predictions for brighter satellites

Satellite Brightness Start Highest point End
(mag) Time Altitude Azimuth Time Altitude Azimuth Time Altitude Azimuth
ATLAS 2AS CENTAUR R/B 4.5 21:33:14 10° SE 21:36:42 14° E 21:40:16 10° ENE
Cosmos 1500 Rocket 4.2 21:34:50 10° SSW 21:39:09 62° W 21:43:34 10° N
Cosmos 1726 3.1 21:41:39 10° N 21:45:08 33° ENE 21:48:35 10° SE
Cosmos 1328 3.9 21:42:20 10° S 21:46:13 60° E 21:50:09 10° NNE
Envisat 3.3 21:41:25 10° S 21:46:29 73° WSW 21:51:35 10° NNW
Cosmos 1437 2.7 21:44:23 10° S 21:47:40 74° E 21:50:57 10° NNE
ERS-1 Rocket 4.1 21:43:06 10° S 21:47:52 43° W 21:52:40 10° NNW
Cosmos 2219 3.4 21:42:27 10° S 21:48:02 54° ESE 21:53:38 10° NE
ATLAS 3B R/B 4.2 21:42:14 10° NNW 21:48:30 30° NNE 21:54:26 10° E
deb Chang Zheng 4 4.1 21:47:56 10° N 21:52:14 64° WNW 21:56:31 10° SSW
Cosmos 2237 Rocket 3.4 21:47:22 10° N 21:52:23 31° NE 21:57:24 10° ESE
Cosmos 2333 4.5 21:46:58 10° NNW 21:52:40 62° ENE 21:58:18 10° SE
Cosmos 2322 4.3 21:48:49 10° NW 21:54:25 56° WSW 21:59:58 10° S
Cosmos 2322 Rocket 4.4 21:50:41 10° NW 21:54:41 20° W 21:58:41 10° SW
Cosmos 2112 Rocket 4.3 21:51:55 10° NNW 21:57:08 69° WSW 22:02:21 10° S
NOSS 3-1 (C) 3.6 21:54:10 10° SSW 21:59:49 50° ESE 22:06:04 10° NE
Cosmos 1271 Rocket 3.6 21:58:12 10° N 22:01:45 35° ENE 22:04:51 13° SE
Meteor 1-27 4.3 21:56:45 10° N 22:02:28 73° ENE 22:08:05 10° SSE
Cosmos 2360 Rocket 3.1 21:58:41 10° NW 22:04:03 46° WSW 22:09:25 10° S
Cosmos 2242 Rocket 4.1 22:01:04 10° N 22:05:23 45° ENE 22:09:14 13° SSE
Cosmos 2151 3.3 22:01:58 10° SSW 22:06:08 68° W 22:10:21 10° N
Cosmos 1937 Rocket 4.3 22:01:50 10° SSE 22:06:23 31° E 22:10:56 10° NE
Cosmos 2298 Rocket 4.2 22:02:27 10° S 22:07:35 52° ESE 22:12:45 10° NNE
Meteor 1-4 Rocket 3.2 22:04:33 10° N 22:08:12 44° ENE 22:11:06 14° SE
Terra 2.9 22:04:32 11° SE 22:08:26 31° ENE 22:12:36 10° N
Cosmos 1703 4.3 22:05:50 13° SSE 22:08:44 28° E 22:12:08 10° NNE
SL-14 R/B 3.5 22:05:02 10° S 22:08:52 51° E 22:12:47 10° NNE
Aureole 3 4.4 22:03:11 10° S 22:09:44 84° W 22:14:53 10° N
MetOp-B 4.4 22:04:24 10° S 22:09:45 72° WSW 22:15:08 10° NNW
NOAA 11 4.3 22:05:31 11° SSE 22:10:48 69° ENE 22:16:16 10° N
Lacrosse 4 Rocket 3.7 22:09:44 10° N 22:12:37 17° NE 22:15:33 10° E
Sich 1 3.2 22:12:07 10° S 22:16:27 58° E 22:20:47 10° NNE
CARTOSAT-1 4.5 22:13:59 14° SE 22:17:16 35° ENE 22:21:12 10° N
USA 245 2.1 22:16:10 15° S 22:18:07 71° WSW 22:20:24 10° NNW
Cosmos 1633 Rocket 3.1 22:15:44 10° S 22:20:02 60° E 22:24:22 10° NNE
COSMOS 2455 4.1 22:16:03 10° NNW 22:21:25 32° NE 22:26:46 10° ESE
Cosmos 2058 3.1 22:17:28 10° SSW 22:21:33 75° W 22:25:41 10° N
DELTA 2 DEB (DPAF) 4.3 22:20:46 15° SSE 22:24:24 62° ENE 22:28:51 10° N
Cosmos 1626 3.5 22:26:21 17° SE 22:28:06 24° E 22:31:10 10° NE
CZ-4 R/B 3.9 22:24:00 10° NNE 22:28:57 70° ESE 22:33:47 10° S
CZ-4B R/B 3.6 22:24:40 10° NNE 22:29:59 86° WNW 22:35:11 10° SSW
H-2A R/B 2.4 22:27:24 16° SE 22:31:38 59° ENE 22:37:00 10° N
SL-08 RB Rocket 3.7 22:28:41 14° SSE 22:32:28 85° WSW 22:37:00 10° NNW
Meteor 1-11 4.3 22:27:41 10° SSW 22:33:27 83° W 22:39:13 10° N
Cosmos 2227 Rocket 2.9 22:29:45 14° SSE 22:33:58 35° ESE 22:39:03 10° NE
Cosmos 1805 Rocket 4.2 22:31:10 10° SSW 22:35:33 58° WNW 22:39:58 10° N
Cosmos 1300 3.8 22:35:34 10° NNW 22:39:12 41° W 22:42:49 10° SSW
YAOGAN 6 4.1 22:38:34 10° SSW 22:41:49 31° W 22:45:05 10° NNW
SPOT 1/Viking Rocket 4.2 22:39:09 10° S 22:44:05 50° W 22:49:07 10° NNW
Tiangong 1 1.9 22:42:15 10° SW 22:44:59 28° SSE 22:45:04 28° SSE
Cosmos 2333 Rocket 2.3 22:39:24 10° NNW 22:45:12 78° ENE 22:49:17 20° SSE
SL-16 R/B 3.3 22:40:39 10° NNW 22:45:52 35° NE 22:50:09 14° ESE
Cosmos 1898 Rocket 3.5 22:43:59 10° SSW 22:49:10 83° WNW 22:54:25 10° NNE
Nadezhda 1 Rocket 3.9 22:47:01 10° N 22:53:08 81° E 22:57:40 19° SSE
SeaSat 1 3.9 22:49:44 11° ESE 22:53:39 28° NE 22:57:49 10° N
IGS 5A 3.5 22:52:41 24° SSE 22:55:09 74° ENE 22:59:20 10° N
Cosmos 2150 Rocket 4.3 22:51:00 10° SSW 22:56:27 73° WNW 23:01:56 10° NNE
COSMOS 2428 3.9 22:51:34 10° NW 22:56:42 36° WSW 23:01:17 12° SSW
Cosmos 220 Rocket 4.0 22:55:01 11° SSW 22:59:12 86° ESE 23:03:40 10° NNE
Cosmos 2297 Rocket 2.7 22:57:44 21° SSE 23:00:58 40° ESE 23:06:13 10° NE
Cosmos 1455 2.1 22:58:03 10° N 23:01:53 83° E 23:03:46 29° SSE
BREEZE-M DEB (TANK) 1.8 23:01:36 10° WNW 23:03:37 77° SSW 23:04:45 32° ESE
NOSS 3-1 (A) 3.5 22:57:43 10° SW 23:03:41 84° NW 23:10:25 10° NE
ARGOS 4.1 22:59:31 12° SSW 23:04:16 41° W 23:09:23 10° NNW
Cosmos 2219 Rocket 2.5 22:59:42 10° NNW 23:05:12 59° WSW 23:08:52 21° S
SAR-Lupe-2 3.5 23:06:22 30° S 23:08:00 83° WSW 23:11:37 10° NNW
Cosmos 1745 Rocket 4.1 23:02:34 12° SSW 23:08:26 80° W 23:14:38 10° N
Cosmos 1470 Rocket 3.6 23:08:34 19° SSW 23:11:36 79° W 23:15:58 10° N
Cosmos 1933 Rocket 3.6 23:09:41 19° SSW 23:12:50 80° W 23:17:20 10° N
Cosmos 1703 Rocket 4.2 23:09:23 10° N 23:13:33 43° ENE 23:15:25 27° SE
Cosmos 1709 Rocket 4.1 23:13:03 24° SSE 23:16:41 56° E 23:22:39 10° NNE
DMSP B5D2-2 4.0 23:11:26 10° NNE 23:16:42 87° ESE 23:20:31 19° SSW
NOSS 0 Rocket 4.3 23:11:28 10° NW 23:17:27 56° WSW 23:21:19 22° S
Cosmos 1869 3.3 23:14:42 10° NNW 23:18:46 79° W 23:20:38 31° S
Cosmos 2221 Rocket 4.0 23:18:32 10° N 23:23:01 52° ENE 23:24:56 31° SE
Cosmos 1980 4.0 23:18:36 10° NNW 23:24:09 58° WSW 23:27:20 25° S
ATLAS 2AS CENTAUR R/B 3.0 23:18:42 10° SSW 23:26:07 64° ESE 23:34:06 10° NE
Aureole 2 Rocket 4.3 23:28:51 10° NNE 23:31:11 19° ENE 23:32:10 17° E
ERBS 2.2 23:32:03 28° SW 23:33:43 72° SE 23:37:12 10° NE
CZ-4C R/B 4.1 23:30:03 10° NNW 23:36:12 35° NE 23:42:59 10° E
Cosmos 2237 Rocket 2.7 23:31:12 10° NW 23:36:42 50° WSW 23:39:42 26° S
ATLAS 3B R/B 2.6 23:33:01 10° NW 23:40:08 88° SW 23:44:00 28° SE
Cosmos 2181 Rocket 4.0 23:34:18 10° N 23:40:43 85° E 23:44:19 29° S
CZ-4C R/B 4.3 23:41:16 25° E 23:42:08 29° ENE 23:45:17 10° N
Cosmos 2082 3.9 23:38:01 12° SSW 23:43:25 74° WNW 23:49:11 10° NNE
Cosmos 44 Rocket 4.2 23:43:52 30° SE 23:44:43 32° ESE 23:49:20 10° NE
Terra 3.0 23:43:25 19° SSW 23:46:07 33° W 23:50:26 10° NNW
USA 238 DEB 4.1 23:42:28 10° NW 23:49:28 61° NE 23:54:39 19° ESE
USA 238 4.1 23:42:35 10° NW 23:49:33 60° NE 23:54:46 19° ESE
COS B Rocket 3.2 23:46:00 10° N 23:49:47 80° E 23:50:56 46° S
Lacrosse 4 Rocket 1.5 23:47:29 10° NNW 23:51:56 82° WSW 23:53:24 42° SSE
Cosmos 2184 Rocket 4.5 23:50:28 29° SE 23:53:12 46° E 23:59:04 10° NNE
Meteor 2-3 Rocket 4.3 23:51:04 30° SE 23:53:18 44° E 23:58:42 10° NNE
Cosmos 1892 4.3 23:55:47 21° E 23:56:01 21° E 23:58:55 10° NE
